Weather History for Cape Girardeau, MO

Change the Weather History Date:

Saturday, December 15, 2012

  Actual Average Record
Temperature  
Mean Temperature 53 °F 36 °F  
Max Temperature 60 °F 45 °F 69 °F (1971)
Min Temperature 46 °F 27 °F 1 °F (1989)
Degree Days  
Heating Degree Days 12 29  
Month to date heating degree days 243 408  
Since 1 July heating degree days 1182 1259  
Growing Degree Days 3 (Base 50)    
Moisture  
Dew Point 51 °F    
Average Humidity 80    
Maximum Humidity 93    
Minimum Humidity 66    
Precipitation  
Precipitation 0.06 in 0.14 in 1.53 in (2007)
Month to date precipitation 0.90 2.18  
Year to date precipitation 26.18 44.74  
Sea Level Pressure  
Sea Level Pressure 29.83 in    
Wind  
Wind Speed 15 mph (South)    
Max Wind Speed 24 mph    
Max Gust Speed 31 mph    
Visibility 8 miles    
Events Rain    
T = Trace of Precipitation, MM = Missing Value Source: NWS Daily Summary

Daily Weather History Graph

Daily Weather History Graph

Search for Another Location

Airport:

Trip Planner

Search our weather history database for the weather conditions in past years. The results will help you decide how hot, cold, wet, or windy it might be!

Date:

Astronomy

Dec. 15, 2012 Rise Set
Actual Time 7:05 AM CST 4:42 PM CST
Civil Twilight 6:36 AM CST 5:11 PM CST
Nautical Twilight 6:03 AM CST 5:43 PM CST
Astronomical Twilight 5:31 AM CST 6:15 PM CST
Moon 9:00 AM CST (12/15) 7:43 PM CST (12/15)
Length of Visible Light 10h 35m
Length of Day
9h 36m
Waxing Crescent, 8% of the Moon is Illuminated
Dec 15
Waxing Crescent
Dec 19
First Quarter
Dec 28
Full
Jan 4
Last Quarter
Jan 11
New

Hourly Weather History & Observations

Time (CST) Temp. Dew Point Humidity Pressure Visibility Wind Dir Wind Speed Gust Speed Precip Events Conditions
12:53 AM 46.9 °F 39.0 °F 74% 30.02 in 10.0 mi SE 5.8 mph - N/A   Overcast
1:53 AM 48.0 °F 39.9 °F 74% 29.99 in 10.0 mi SSE 11.5 mph - 0.00 in   Overcast
2:53 AM 46.9 °F 43.0 °F 86% 29.99 in 4.0 mi SE 8.1 mph - 0.03 in Rain Rain
3:53 AM 46.9 °F 44.1 °F 90% 29.96 in 8.0 mi SE 10.4 mph - 0.00 in Rain Light Rain
4:53 AM 46.9 °F 45.0 °F 93% 29.91 in 10.0 mi SE 16.1 mph - 0.00 in   Overcast
5:53 AM 48.9 °F 46.0 °F 90% 29.90 in 9.0 mi SSE 15.0 mph 20.7 mph 0.00 in Rain Light Rain
6:53 AM 48.9 °F 45.0 °F 86% 29.90 in 10.0 mi SSE 12.7 mph 23.0 mph 0.03 in   Overcast
7:37 AM 48.2 °F 44.6 °F 87% 29.87 in 10.0 mi SSE 15.0 mph - N/A   Overcast
7:53 AM 48.9 °F 45.0 °F 86% 29.88 in 8.0 mi SSE 13.8 mph 23.0 mph N/A   Overcast
8:53 AM 51.1 °F 46.9 °F 86% 29.86 in 10.0 mi South 20.7 mph 27.6 mph N/A   Overcast
9:48 AM 53.6 °F 48.2 °F 82% 29.85 in 10.0 mi South 15.0 mph 23.0 mph N/A   Overcast
9:53 AM 53.1 °F 48.0 °F 83% 29.85 in 10.0 mi South 16.1 mph - N/A   Overcast
10:10 AM 51.8 °F 48.2 °F 88% 29.84 in 2.0 mi South 16.1 mph 23.0 mph N/A   Overcast
10:19 AM 51.8 °F 48.2 °F 88% 29.84 in 1.5 mi South 16.1 mph - N/A   Overcast
10:32 AM 51.8 °F 48.2 °F 88% 29.83 in 3.0 mi South 18.4 mph 24.2 mph N/A   Overcast
10:44 AM 51.8 °F 50.0 °F 94% 29.83 in 2.5 mi South 17.3 mph 24.2 mph N/A   Overcast
10:53 AM 53.1 °F 50.0 °F 89% 29.83 in 2.5 mi South 16.1 mph - N/A   Overcast
11:06 AM 53.6 °F 51.8 °F 94% 29.82 in 3.0 mi South 13.8 mph 23.0 mph N/A   Overcast
11:53 AM 54.0 °F 51.1 °F 90% 29.80 in 7.0 mi SSW 15.0 mph 24.2 mph N/A   Overcast
12:53 PM 55.0 °F 53.1 °F 93% 29.77 in 8.0 mi SSW 18.4 mph 27.6 mph N/A   Overcast
1:53 PM 57.0 °F 54.0 °F 89% 29.74 in 8.0 mi SSW 17.3 mph 26.5 mph N/A   Overcast
2:53 PM 57.9 °F 55.0 °F 90% 29.74 in 9.0 mi SSW 17.3 mph 26.5 mph N/A   Overcast
3:10 PM 57.2 °F 55.4 °F 94% 29.73 in 10.0 mi SSW 20.7 mph 29.9 mph N/A   Overcast
3:53 PM 57.9 °F 55.0 °F 90% 29.72 in 10.0 mi SSW 17.3 mph 28.8 mph N/A   Overcast
4:53 PM 57.9 °F 55.0 °F 90% 29.74 in 10.0 mi SSW 19.6 mph 26.5 mph N/A   Overcast
5:53 PM 57.9 °F 55.0 °F 90% 29.74 in 10.0 mi SSW 18.4 mph 29.9 mph N/A   Overcast
6:53 PM 59.0 °F 55.9 °F 90% 29.76 in 10.0 mi SSW 20.7 mph 24.2 mph N/A   Overcast
7:53 PM 59.0 °F 55.9 °F 90% 29.76 in 10.0 mi SSW 17.3 mph 27.6 mph N/A   Overcast
8:53 PM 59.0 °F 57.0 °F 93% 29.78 in 10.0 mi SW 16.1 mph - N/A   Overcast
9:18 PM 59.0 °F 57.2 °F 94% 29.77 in 10.0 mi SSW 16.1 mph 24.2 mph N/A   Overcast
9:53 PM 60.1 °F 57.0 °F 90% 29.78 in 10.0 mi SSW 15.0 mph - N/A   Overcast
10:35 PM 60.8 °F 57.2 °F 88% 29.77 in 10.0 mi SW 13.8 mph - N/A   Overcast
10:53 PM 59.0 °F 57.0 °F 93% 29.77 in 10.0 mi SSW 10.4 mph - N/A   Overcast
11:53 PM 59.0 °F 57.0 °F 93% 29.76 in 10.0 mi SW 11.5 mph - N/A   Overcast